Starlink 31783

operational
NORAD ID: 59750 Int'l Des: 2024-090 Owner: SPXS Country: US Constellation: starlink
LEOCIRCULAR

About Starlink 31783

Description loading...

Live Position

Loading 3D Globe...

Upcoming Passes

Altitude History

Altitude vs Time

uPlot chart will show altitude changes over time

Two-Line Element Set

1 59750U 24090W 26034.02045487 -.00001496 00000-0 -44853-4 0 9996
2 59750 43.0054 19.6553 0001515 281.3422 78.7259 15.27582629 98122
Epoch: Feb 3, 2026 • Age: 13 hours

Current Status

Altitude 484.7 km
Velocity 7.63 km/s
Sub-Earth Point 30.98°N, 178.76°E
Launch Date May 13, 2024
Age 1.7 years
Type internet

Technical Details

Classification Payload
Mass 730.00 kg
Dry Mass 700.00 kg
Total Mass 730.00 kg
Length 0.30 m
Diameter 4.10 m
Span 29.00 m
Shape Box + pan
Manufacturer SPXS
Bus Type Starlink V2M
Phase Status In Orbit
Owner/State SPXS/US

Large Constellations

Loading constellations...